Regional Weather Roundup
Issued by NWS Binghamton, NY

Home | Current Version | Previous Version | Text Only | Print | Product List | Glossary On
Versions: 1 2 3 4 5 6 7 8 9 10 11 12 13 14 15 16 17 18 19 20 21 22 23 24 25 26 27 28 29 30 31 32 33 34 35 36 37 38 39 40 41 42 43 44 45 46 47 48 49 50
000
ASUS41 KBGM 291910
RWRBGM
RWRBGM
BINGHAMTON REGIONAL WEATHER ROUNDUP
NATIONAL WEATHER SERVICE BINGHAMTON NY
300 PM EDT TUE JUL 29 2014

Note: "fair" indicates few or no clouds below 12,000 feet with no
significant weather and/or obstructions to visibility.

* = Station(s) that does not report precipitation, such as rain,
snow, etc, also no thunder or fog.

!NYZ009-015>018-022>025-036-037-044>046-055>057-062-292000
...CENTRAL NEW YORK...

CITY           SKY/WX    TMP DP  RH WIND       PRES   REMARKS
BINGHAMTON     CLOUDY    62  50  64 NW8       29.94S
CORTLAND       CLOUDY    64  52  63 N6        29.95S
DANSVILLE      PTSUNNY   68  48  48 CALM      29.95S
ELMIRA         CLOUDY    66  51  58 NW7       29.94S
ITHACA         PTSUNNY   65  50  58 NW8       29.96S
HAMILTON       CLOUDY    66  54  63 N7        29.92S
MONTICELLO     PTSUNNY   66  48  52 W9        29.93S
NORWICH        CLOUDY    63  48  59 NW8       29.93R
ONEONTA        PTSUNNY   61  48  63 CALM      29.93R
PENN YAN       CLOUDY    66  48  52 W3        29.95S
ROME           MOSUNNY   70  52  52 NW15G22   29.90S
SIDNEY         CLOUDY    70  57  64 W3        29.92S
SYRACUSE       PTSUNNY   71  51  49 NW12      29.91S
$$

!PAZ038>040-043-044-047-048-072-292000
...NORTHEAST PENNSYLVANIA...

CITY           SKY/WX    TMP DP  RH WIND       PRES   REMARKS
HAZLETON       PTSUNNY   66  48  52 NW6       29.97R
SCRANTON       CLOUDY    69  46  43 NW9       29.92S
TOWANDA*       MOSUNNY   66  48  52 N7        29.95R
$$
&&
KEY
WCI = WIND CHILL INDEX
VSB = VISIBILITY
HX  = HEAT INDEX
$$


USA.gov is the U.S. government's official web portal to all federal, state and local government web resources and services.